Погода в Новоивановке

Украина / Днепропетровская область     47°47′00″N   34°26′30″E
темп.,
°C
ветер,
м/с
пор.,
м/с
влажн.,
%
обл.,
%
осадки,
мм/ч
давл.,
гПа
погр.,
м
17 октября, вс
вс1700:00+13ссв4660100 0.0 1016122
03:00+12ссв5960100 0.0 1016253
06:00+12ссв5961100 0.0 1016259
09:00+13св4757100 0.0 1017315
12:00+14ссв5654100 0.0 1017433
15:00+14ссв4549100 0.0 1017436
18:00+13с3747100 0.0 1017340
21:00+12с4756100 0.0 1018282
18 октября, пн
пн1800:00+11ссз3762100 0.0 1018272
03:00+11с486596 0.0 1019306
06:00+9с477037 0.0 1019231
09:00+9с4564100 0.0 1020262
12:00+13сз44475 0.0 1019972
15:00+14сз5539100 0.0 10181385
18:00+11сз3646100 0.0 1019137
21:00+10сз3551100 0.0 1019117
19 октября, вт
вт1900:00+9з3553100 0.0 1019127
03:00+8зсз356187 0.0 101983
06:00+9з3760100 0.0 1018305
09:00+10з5860100 0.0 1018615
12:00+8сз71078100 1.3 10191165
15:00+10с712538 1.3 10201485
18:00+8ссз611440 0.0 1023353
21:00+6сз49570 0.0 1025234
20 октября, ср
ср2000:00+4сз48630 0.0 1026153
03:00+3сз38694 0.0 1027145
06:00+2ссз35765 0.0 102881
09:00+5ссз346370 0.0 1030215
12:00+9сз33445 0.0 10291166
15:00+11зюз343815 0.0 10281356
18:00+7ююз3454100 0.0 102864
21:00+7ю46535 0.0 102787
21 октября, чт
чт2100:00+6ю35586 0.0 102773
03:00+6ююз3560100 0.0 102681
06:00+5ю476540 0.0 1025114
09:00+8ю696063 0.0 1025372
12:00+13ююз79505 0.0 1023879
15:00+15ююз8104066 0.0 10211207
18:00+13ююз6125187 0.0 1020334
21:00+11ююз6116681 0.0 1019412